Location: B�rgermoos
(47.6500°N, 9.0667°E)
Time: 17:37:31
(UTC+00:00)

Vanguard 1 - Pass Details

Date: 07 August 2021
Orbit: 652 x 3831 km, 34.3° (Epoch: 17 September)

Event Time Altitude Azimuth Distance (km) Brightness Sun altitude
Rises 12:56:09 0° 253° (WSW) 3,385 13.3 53.9°
Reaches altitude 10° 12:59:19 10° 230° (SW) 2,753 13.2 53.6°
Maximum altitude 13:03:13 16° 194° (SSW) 2,736 13.2 53.2°
Drops below altitude 10° 13:08:19 10° 160° (SSE) 3,792 13.4 52.6°
Sets 13:14:05 0° 142° (SE) 5,473 14.0 51.9°
